User: anonymous   Login
Location: *
(43.9900°N, 3.4811°E)
Time: 17:12:19
(UTC+00:00)
Language:

Cosmos 44 Rocket - Orbit

View from above orbital plane
View from above orbital plane
View from above satellite
View from above satellite

Ground track
Ground track

The orbit data is extracted from the following two-line orbital elements,

1   877U 64053B   19294.52793463 -.00000075 +00000-0 +93669-5 0  9995
2   877 065.0775 310.0678 0055579 146.8890 213.5709 14.59373635926477
Epoch (UTC): 21 October 2019 12:40:13
Eccentricity: 0.0055579
inclination: 65.0775°
perigee height: 656 km
apogee height: 734 km
right ascension of ascending node: 310.0678°
argument of perigee: 146.8890°
revolutions per day: 14.59373635
mean anomaly at epoch: 213.5709°
orbit number at epoch: 92647

The dashed part of the orbit path shows where the satellite is in the earth's shadow,  

DLR